Wind_Speed
19 20 21 22 24 24 25 27 26 26 26 26 25 24 23 23 21 20 19 18 17 15 15 14 14 14 16 16 16 16 16 15 15 15 15 15 15 14 14 13 11 10 9
15 17 18 19 20 22 23 24 26 26 26 25 25 25 25 24 22 22 21 20 18 17 16 16 15 14 16 16 16 16 16 16 15 15 15 15 15 15 14 14 13 11 10
12 13 14 16 18 19 20 22 24 25 25 24 25 26 26 25 24 23 22 21 20 19 18 17 16 15 16 16 16 16 16 16 16 15 15 15 16 16 15 14 13 12 11
10 10 11 13 15 17 18 20 21 23 25 25 25 26 26 27 26 25 24 22 21 20 20 18 17 16 16 17 17 17 17 17 17 16 15 15 16 16 16 15 14 13 12
9 8 8 10 12 14 16 18 19 20 22 24 24 26 27 27 27 26 25 25 24 22 21 20 19 18 18 18 18 18 18 18 18 17 16 16 16 17 16 15 15 13 12
9 7 6 7 9 12 14 15 17 18 20 23 25 26 26 27 28 28 27 26 26 25 24 23 22 21 20 19 19 20 20 19 19 18 17 17 17 17 17 16 16 15 14
9 7 5 4 5 8 12 13 14 16 17 20 23 26 25 25 27 29 29 29 28 27 26 25 25 23 22 21 20 21 21 21 20 19 18 19 18 18 18 17 17 16 15
9 7 5 3 2 4 8 10 13 15 16 18 20 23 25 26 27 29 29 29 29 29 28 28 27 25 24 23 23 23 23 22 21 20 20 20 19 19 19 19 18 17 16
10 8 7 4 2 2 4 7 10 12 14 17 19 20 21 24 27 29 29 29 28 29 30 29 29 28 26 25 25 25 25 23 23 22 21 22 21 21 20 20 20 19 18
11 9 8 6 4 1 2 4 7 10 12 15 18 19 20 22 24 27 29 30 30 30 31 32 31 30 29 28 28 28 27 26 25 25 24 24 23 23 22 22 21 21 20
11 10 8 7 5 3 1 1 4 6 9 11 14 18 19 22 22 24 27 29 30 30 31 32 32 32 32 31 31 31 30 29 27 27 26 26 25 25 24 24 23 23 22
11 10 9 8 6 5 3 2 2 4 6 9 12 14 17 20 22 23 25 27 29 31 32 33 34 34 33 34 34 33 33 31 30 30 29 28 28 27 27 26 26 25 25
11 10 9 8 7 6 4 3 2 2 4 7 10 12 16 18 20 22 24 26 28 30 32 33 33 35 35 35 36 36 35 35 34 33 32 32 31 30 29 29 28 28 27
11 11 10 9 8 7 6 4 4 3 4 5 7 10 13 16 18 20 22 24 27 28 30 33 34 36 37 38 38 38 38 38 38 37 36 35 34 33 32 32 31 30 29
11 11 11 10 9 8 7 6 5 4 4 4 6 7 10 13 16 18 21 22 24 26 28 31 33 35 37 38 39 40 40 40 40 40 39 38 37 37 36 35 35 34 33
11 11 10 10 10 9 8 7 6 6 5 5 6 7 8 10 13 16 19 21 23 25 26 29 31 34 36 38 38 39 40 42 42 42 42 42 41 40 40 39 38 37 36
11 11 10 10 10 9 8 8 7 6 6 6 6 6 7 8 11 13 15 19 22 24 26 28 29 31 33 36 38 39 41 42 43 44 44 44 44 43 43 43 42 41 40
12 11 11 10 10 9 9 9 8 7 6 6 6 6 7 8 8 11 13 16 19 22 24 27 28 29 31 33 35 38 39 40 42 43 44 45 46 46 46 45 45 44 44
12 12 11 11 10 10 10 10 9 8 7 7 7 7 7 7 8 9 11 14 16 19 21 24 26 28 30 31 34 35 37 38 41 43 45 46 47 48 48 48 48 48 47
13 13 12 12 11 10 10 10 10 9 9 8 8 8 8 8 8 9 10 12 14 16 19 21 24 26 27 29 31 33 34 36 39 41 43 45 47 49 49 49 50 50 50
13 13 13 12 12 11 11 10 10 10 9 9 9 8 8 8 9 9 10 11 12 13 16 18 20 22 24 25 28 30 31 33 35 37 39 42 43 45 48 49 50 50 51
14 14 14 13 12 12 11 11 10 10 10 10 9 9 9 9 9 9 10 10 11 12 13 15 17 20 22 23 25 27 28 30 32 34 36 39 41 43 45 47 48 49 50
14 14 14 14 13 13 12 12 11 11 10 10 10 10 10 10 10 10 10 10 11 11 12 13 15 17 19 21 23 24 26 27 29 30 32 35 38 40 42 44 45 48 49
14 14 14 14 14 13 13 13 12 12 12 11 11 11 11 11 10 10 11 11 11 12 12 13 14 15 17 18 20 21 23 25 26 28 30 31 34 37 39 40 41 43 45
14 14 14 14 14 14 14 14 14 13 13 13 12 12 12 12 12 12 12 12 12 12 13 13 13 14 15 16 18 19 20 22 24 26 28 29 31 33 35 37 39 41 43
14 14 15 15 15 15 15 15 15 15 14 14 14 14 14 13 13 13 13 13 13 13 14 14 14 14 14 15 17 18 19 21 22 24 26 27 28 30 31 33 36 38 39
Wind_Direction
277 270 263 257 251 246 241 239 237 236 232 231 229 221 219 218 216 213 210 208 208 208 208 205 199 199 197 196 196 197 197 197 197 198 201 202 202 200 201 201 201 201 198
282 273 266 257 250 245 240 237 236 235 231 229 228 222 222 218 215 214 211 209 209 209 208 205 201 200 197 196 198 200 200 199 199 201 202 203 204 203 203 205 204 204 204
292 280 268 257 249 244 239 236 235 234 230 226 225 223 220 218 217 214 212 210 210 211 209 209 204 204 201 198 200 202 203 201 202 205 206 205 205 206 206 207 207 208 207
304 288 273 258 249 241 235 233 234 232 229 227 226 223 220 218 217 215 213 213 213 212 211 211 208 206 204 203 203 204 205 205 205 207 209 208 209 209 206 208 208 209 209
323 303 282 262 247 238 233 233 235 231 227 226 226 224 223 221 219 218 216 215 214 213 213 214 212 210 210 209 208 207 208 210 210 211 212 213 212 210 208 209 209 211 213
343 327 302 273 248 236 231 233 233 232 227 224 223 225 225 226 222 220 217 216 216 216 216 217 215 214 214 214 214 212 212 213 214 214 216 215 215 212 212 212 213 215 218
353 348 332 295 255 235 231 233 234 232 228 224 222 223 225 224 222 220 219 219 218 219 219 219 218 218 217 218 218 216 215 216 217 218 219 219 218 216 215 215 217 219 221
7 4 356 333 278 238 231 233 232 230 232 228 223 223 225 225 223 221 221 222 222 222 222 222 221 220 220 220 221 221 219 219 221 221 222 221 221 220 217 218 220 222 224
15 15 12 10 353 247 231 233 229 229 229 228 225 226 227 227 225 224 224 224 225 224 225 225 224 225 225 225 224 223 221 221 223 224 224 223 224 223 223 223 225 226 228
20 21 21 24 27 17 248 239 229 227 228 227 225 227 229 227 226 227 228 228 229 229 227 226 226 226 227 228 226 224 225 225 226 227 227 226 226 227 227 226 228 229 230
22 24 24 24 24 20 0 265 237 233 231 228 228 229 231 230 229 230 230 229 230 230 230 229 230 230 229 229 228 228 229 229 229 229 229 229 229 229 228 229 230 232 233
22 24 25 24 23 20 18 344 264 244 236 232 230 231 234 234 230 230 230 231 232 232 232 232 233 232 231 231 231 231 232 232 232 231 231 232 232 232 231 231 232 233 234
19 21 22 21 21 20 15 359 326 275 249 243 241 240 239 237 233 233 232 233 234 235 234 234 234 233 233 233 233 233 234 233 233 234 234 234 235 235 235 236 236 237 237
19 20 19 18 15 13 10 3 349 320 281 265 256 250 243 240 238 237 236 236 237 238 238 238 237 236 235 235 235 235 235 236 235 236 237 237 237 237 238 239 239 239 239
16 17 18 16 13 8 4 359 351 336 309 290 275 261 252 246 243 241 241 240 240 240 241 240 240 239 239 238 238 237 237 237 237 238 238 238 239 239 239 240 242 242 242
12 11 11 10 9 5 360 354 345 337 322 309 295 276 263 254 249 246 244 242 242 243 243 242 241 241 241 240 239 240 240 239 239 240 240 240 240 240 240 241 242 243 244
8 7 5 3 2 359 354 349 340 334 327 316 308 297 285 271 258 251 250 248 248 248 246 246 244 243 243 243 241 242 243 241 241 241 242 242 242 242 242 242 243 243 244
4 2 360 358 356 354 352 349 344 337 330 320 310 304 297 287 275 262 257 255 254 252 250 250 249 247 246 245 244 244 244 243 242 242 243 244 244 244 244 244 244 244 246
358 357 355 353 351 349 348 347 343 337 330 321 311 305 299 292 286 277 267 263 260 255 253 252 252 251 250 249 247 247 247 245 244 244 245 245 246 245 245 245 245 246 247
352 351 350 348 347 345 343 341 338 335 330 323 316 309 303 296 292 287 278 271 264 259 256 254 253 253 254 253 251 250 249 248 247 247 247 248 247 247 247 247 247 247 247
347 347 345 344 342 340 340 338 336 331 328 326 322 314 308 302 298 293 286 278 271 266 262 259 257 255 256 255 253 252 251 251 251 250 250 249 249 249 249 249 249 248 249
344 345 344 342 340 338 337 337 335 332 327 325 323 318 313 306 302 297 293 285 278 273 268 265 263 260 259 258 254 254 253 253 253 252 253 252 251 251 250 250 249 248 248
341 342 342 340 338 336 335 334 332 330 327 324 321 317 314 310 304 301 299 294 286 282 278 273 270 267 264 261 258 257 256 255 256 256 256 256 255 253 252 252 251 248 248
338 339 339 337 334 333 331 330 329 327 324 321 317 315 312 310 304 301 298 297 293 288 285 281 276 270 266 263 262 260 258 257 257 258 259 259 258 256 254 252 251 250 249
334 334 334 334 332 330 327 325 324 322 320 318 316 313 309 306 302 299 296 294 294 292 290 288 286 280 274 270 266 264 262 261 260 260 262 262 261 259 258 256 254 253 252
329 328 329 330 329 327 325 322 320 318 316 314 312 310 307 304 301 299 296 294 291 290 289 288 288 285 280 276 272 268 266 265 263 263 264 264 262 260 259 258 257 256 255
Height
5801 5800 5800 5801 5802 5804 5806 5809 5812 5815 5819 5822 5825 5829 5833 5836 5839 5842 5845 5848 5850 5853 5855 5857 5859 5860 5863 5865 5867 5870 5872 5875 5877 5879 5882 5884 5886 5888 5890 5892 5893 5894 5896
5797 5795 5795 5796 5797 5799 5801 5803 5807 5810 5813 5817 5821 5824 5828 5832 5836 5839 5842 5845 5848 5850 5853 5855 5857 5859 5861 5864 5866 5869 5871 5873 5876 5878 5880 5882 5884 5886 5888 5890 5892 5894 5895
5793 5792 5791 5791 5792 5794 5796 5799 5802 5805 5809 5812 5816 5820 5824 5828 5832 5835 5838 5842 5845 5848 5851 5853 5855 5857 5859 5862 5865 5867 5869 5872 5874 5876 5878 5881 5883 5885 5887 5889 5891 5893 5894
5790 5789 5788 5788 5788 5790 5792 5795 5797 5800 5804 5808 5811 5815 5819 5823 5827 5831 5835 5838 5841 5845 5848 5851 5853 5855 5858 5860 5863 5865 5868 5870 5873 5875 5877 5879 5881 5884 5886 5888 5890 5891 5893
5788 5787 5785 5785 5785 5787 5789 5791 5794 5796 5799 5803 5807 5810 5814 5818 5822 5827 5831 5834 5838 5841 5845 5848 5850 5853 5856 5858 5861 5863 5866 5869 5871 5873 5875 5877 5880 5882 5884 5886 5888 5890 5892
5787 5785 5784 5783 5783 5784 5786 5788 5790 5793 5795 5799 5802 5806 5810 5814 5818 5822 5826 5830 5834 5838 5841 5844 5847 5850 5853 5856 5858 5861 5864 5866 5868 5871 5873 5875 5877 5880 5882 5884 5886 5888 5890
5786 5784 5782 5781 5781 5782 5783 5785 5787 5790 5792 5795 5798 5802 5806 5809 5813 5817 5821 5826 5830 5833 5837 5840 5843 5846 5849 5852 5855 5858 5861 5863 5866 5868 5871 5873 5875 5878 5880 5882 5884 5886 5888
5786 5784 5782 5781 5780 5781 5782 5783 5785 5787 5789 5792 5795 5798 5802 5806 5809 5813 5817 5821 5825 5829 5833 5836 5839 5842 5845 5848 5852 5855 5857 5860 5863 5865 5868 5870 5873 5875 5877 5880 5882 5884 5886
5786 5784 5782 5781 5780 5780 5781 5781 5783 5784 5786 5789 5792 5795 5798 5801 5805 5809 5812 5816 5820 5824 5828 5831 5835 5838 5841 5844 5847 5851 5854 5857 5859 5862 5864 5867 5870 5872 5874 5877 5879 5881 5883
5787 5784 5783 5781 5780 5780 5780 5780 5781 5782 5784 5786 5788 5791 5794 5797 5800 5804 5808 5811 5815 5818 5822 5826 5829 5832 5836 5839 5842 5846 5849 5852 5855 5858 5861 5863 5866 5868 5871 5873 5875 5878 5880
5788 5785 5783 5782 5781 5780 5780 5780 5780 5781 5782 5783 5785 5788 5790 5792 5795 5799 5802 5806 5809 5812 5816 5819 5823 5826 5830 5833 5837 5840 5844 5847 5850 5853 5856 5859 5861 5864 5866 5869 5871 5874 5876
5788 5786 5784 5783 5781 5780 5780 5779 5779 5779 5780 5781 5782 5784 5786 5788 5791 5793 5797 5800 5803 5806 5810 5813 5816 5820 5823 5827 5831 5835 5838 5842 5845 5848 5851 5854 5856 5859 5862 5864 5867 5869 5871
5789 5787 5785 5783 5782 5780 5779 5779 5778 5778 5778 5779 5780 5781 5783 5784 5786 5789 5791 5794 5797 5800 5803 5806 5809 5813 5816 5820 5824 5828 5831 5835 5839 5842 5845 5848 5851 5854 5856 5859 5861 5863 5866
5790 5788 5786 5784 5782 5780 5779 5778 5778 5777 5777 5777 5777 5778 5779 5780 5782 5783 5786 5788 5791 5793 5796 5799 5802 5806 5809 5812 5816 5820 5824 5827 5831 5835 5838 5841 5844 5847 5850 5853 5855 5858 5860
5791 5788 5786 5784 5782 5781 5779 5778 5777 5776 5775 5775 5775 5775 5775 5776 5777 5778 5780 5782 5785 5787 5789 5792 5795 5798 5801 5804 5808 5811 5815 5819 5823 5827 5830 5833 5837 5840 5843 5846 5848 5851 5853
5791 5789 5786 5784 5783 5781 5779 5778 5776 5775 5774 5773 5773 5772 5772 5772 5772 5773 5775 5776 5778 5780 5782 5784 5787 5789 5792 5796 5799 5802 5806 5810 5813 5817 5821 5824 5828 5831 5835 5838 5840 5843 5846
5791 5789 5787 5784 5782 5780 5779 5777 5775 5774 5773 5772 5771 5770 5769 5769 5769 5769 5770 5771 5772 5773 5775 5776 5778 5781 5784 5787 5790 5793 5796 5800 5804 5807 5811 5814 5818 5821 5825 5828 5831 5834 5837
5791 5789 5786 5784 5782 5780 5778 5776 5774 5773 5771 5770 5769 5768 5767 5767 5766 5766 5765 5766 5766 5767 5768 5769 5771 5773 5776 5778 5781 5784 5787 5790 5793 5797 5800 5804 5807 5811 5814 5818 5821 5824 5827
5790 5788 5786 5783 5781 5779 5777 5775 5773 5771 5770 5769 5768 5766 5765 5764 5763 5762 5762 5762 5761 5762 5762 5763 5764 5765 5767 5770 5772 5775 5777 5780 5783 5786 5790 5793 5796 5799 5803 5806 5810 5813 5817
5790 5787 5785 5782 5780 5778 5776 5774 5772 5770 5768 5767 5766 5764 5763 5762 5761 5759 5758 5757 5757 5756 5757 5757 5758 5759 5760 5762 5764 5766 5768 5771 5773 5776 5779 5781 5784 5787 5790 5794 5798 5801 5804
5788 5786 5783 5781 5779 5777 5775 5773 5771 5769 5767 5765 5764 5762 5761 5759 5758 5757 5755 5754 5753 5752 5752 5752 5752 5753 5754 5755 5757 5758 5760 5761 5764 5766 5768 5770 5772 5775 5778 5781 5784 5788 5791
5787 5784 5782 5780 5777 5775 5773 5771 5769 5767 5766 5764 5762 5760 5759 5757 5756 5754 5752 5751 5750 5749 5748 5748 5747 5747 5748 5748 5749 5750 5752 5753 5755 5757 5758 5759 5761 5763 5765 5768 5771 5774 5777
5785 5783 5780 5778 5776 5774 5772 5770 5768 5766 5764 5762 5760 5758 5757 5755 5753 5751 5750 5748 5747 5745 5744 5743 5742 5742 5742 5742 5743 5744 5744 5745 5747 5748 5749 5750 5750 5752 5754 5756 5758 5761 5764
5784 5781 5779 5776 5774 5772 5770 5768 5766 5764 5762 5760 5758 5756 5754 5752 5750 5749 5747 5745 5744 5742 5741 5739 5738 5737 5737 5737 5737 5737 5737 5738 5739 5739 5740 5741 5741 5742 5743 5745 5747 5749 5752
5781 5779 5777 5774 5772 5770 5768 5765 5763 5761 5759 5757 5755 5753 5751 5749 5748 5746 5744 5742 5741 5739 5737 5736 5734 5733 5732 5732 5731 5731 5731 5732 5732 5732 5732 5732 5732 5732 5733 5734 5736 5737 5740
5779 5777 5774 5772 5770 5767 5765 5763 5760 5758 5756 5754 5752 5750 5748 5746 5744 5742 5741 5739 5737 5736 5734 5732 5731 5729 5728 5727 5727 5726 5726 5725 5725 5725 5724 5724 5724 5723 5724 5725 5726 5727 5728